Location: Москва
(55.7518°N, 37.5952°E)
Time: 03:41:28
(UTC+03:00)

ISS - Pass Details

Date: 01 February 2021
Orbit: 417 x 422 km, 51.6° (Epoch: 17 May)

Event Time Altitude Azimuth Distance (km) Brightness Sun altitude
Rises 19:04:35 0° 273° (W) 2,376 1.8 -16.9°
Reaches altitude 10° 19:06:55 10° 259° (W) 1,511 0.4 -17.2°
Maximum altitude 19:09:43 24° 204° (SSW) 927 -1.7 -17.6°
Enters shadow 19:11:30 16° 161° (SSE) 1,200 -1.6 -17.8°
